カタログに戻る

STARLINK-3359

運用中通信VLEO
NORAD 51148·PAYLOAD·🇺🇸 United States

打ち上げ Jan 19, 2022 から Cape Canaveral Space Force Station

Loading…

次のパス (今後24時間)

TLE

最新Source: CelesTrak SupGP

元期: Sep 14, 2026, 21:35 UTC

1 51148C 22005AW  26257.89979167 -.00006176  00000+0 -30751-3 0  2573
2 51148  53.2146 174.2326 0002613  83.4618  87.6940 15.17078872    10

AllMySatでSTARLINK-3359をリアルタイム追跡

Download on the App Store